Regional Weather Roundup
Issued by NWS

Home | Current Version | Previous Version | Text Only | Print | Product List | Glossary Off
Versions: 1 2 3 4 5 6 7 8 9 10 11 12 13 14 15 16 17 18 19 20 21 22 23 24 25 26 27 28 29 30 31 32 33 34 35 36 37 38 39 40 41 42 43 44 45 46 47 48 49 50

000
ASUS43 KIND 281759
RWRIN

WEATHER ROUNDUP FOR INDIANA
NATIONAL WEATHER SERVICE INDIANAPOLIS IN
200 PM EDT FRI AUG 28 2015

NOTE: "FAIR" INDICATES FEW OR NO CLOUDS BELOW 12,000 FEET WITH NO
SIGNIFICANT WEATHER AND/OR OBSTRUCTIONS TO VISIBILITY.

* - STATION DOES NOT REPORT WEATHER SUCH AS PRECIPITATION OR FOG.

+ - STATION NOT QUALITY CONTROLLED BY THE NATIONAL WEATHER SERVICE.
    USE DATA WITH CAUTION...ESPECIALLY DEWPOINT AND RELATIVE
    HUMIDITY OBSERVATIONS.

INZ001>003-010>013-019-020-281900-
NORTHWEST INDIANA

CITY           SKY/WX    TMP DP  RH WIND       PRES   REMARKS
GARY /AIRPORT/ CLOUDY    75  59  57 SW5       30.15S
MONTICELLO +   PTSUNNY   76  62  60 S3        30.15F HAZE
6HR MIN TEMP:  58; 6HR MAX TEMP:  76;


$$

LMZ046-743>745-281900-
SOUTHERN LAKE MICHIGAN

STATION/POSITION TIME  TEMP    WIND        PRES    WAVE
                       AIR SEA DIR/SP/G            HT
                 (UTC) (F)     (DEG/KT/KT) (MB)    (FT)
BURNS HARBOR     1700   73     200/  9/ 12 1021.3S
MICHIGAN CITY    1700   72     190/  8/ 10   N/A
5NW MICH CITY    1700   72 71  200/  4/  4   N/A     0

$$

INZ004-005-014>016-021>024-281900-
NORTH CENTRAL INDIANA

CITY           SKY/WX    TMP DP  RH WIND       PRES   REMARKS
ELKHART        CLOUDY    75  59  57 W8        30.17F
GOSHEN         CLOUDY    76  60  57 S9        30.16F
6HR MIN TEMP:  57; 6HR MAX TEMP:  76;

SOUTH BEND     CLOUDY    75  60  59 SW10      30.16F
6HR MIN TEMP:  56; 6HR MAX TEMP:  76;


$$

INZ006>009-017-018-025>027-281900-
NORTHEAST INDIANA

CITY           SKY/WX    TMP DP  RH WIND       PRES   REMARKS
ANGOLA *+      SUNNY     75  66  73 SW6       30.18F
FORT WAYNE     PTSUNNY   76  59  55 SW6       30.18F
6HR MIN TEMP:  56; 6HR MAX TEMP:  76;


$$

INZ028-029-035-036-043>045-051>053-281900-
WEST CENTRAL INDIANA

CITY           SKY/WX    TMP DP  RH WIND       PRES   REMARKS
CRAWFORDSVL +  PTSUNNY   75  53  46 S5        30.16F
6HR MIN TEMP:  56; 6HR MAX TEMP:  75;

GREENCASTLE +  CLOUDY    75  52  43 E6        30.18F
LAFAYETTE      CLOUDY    77  57  50 SW8       30.15F
6HR MIN TEMP:  58; 6HR MAX TEMP:  77;

TERRE HAUTE    MOSUNNY   78  56  46 SE9       30.15F
6HR MIN TEMP:  54; 6HR MAX TEMP:  80;


$$

INZ030>032-037>040-046>048-054>057-064-065-281900-
CENTRAL INDIANA

CITY           SKY/WX    TMP DP  RH WIND       PRES   REMARKS
ANDERSON       MOSUNNY   77  48  36 CALM      30.19F
COLUMBUS       SUNNY     75  48  38 E6        30.17F
GREENWOOD *+   MOSUNNY   77  54  44 SE6       30.18F
INDIANAPOLIS   PTSUNNY   78  55  44 VRB3      30.16F
6HR MIN TEMP:  60; 6HR MAX TEMP:  78;

-EAGLE CREEK   PTSUNNY   76  55  48 SW6       30.16F
6HR MIN TEMP:  58; 6HR MAX TEMP:  77;

KOKOMO *+      CLOUDY    75  59  57 S5        30.17F
6HR MIN TEMP:  55; 6HR MAX TEMP:  75;

MT COMFORT *+  MOSUNNY   77  46  33 SE6       30.18F
SHELBYVILLE    MOSUNNY   78  57  48 SE7       30.16F
6HR MIN TEMP:  56; 6HR MAX TEMP:  78;


$$

INZ033-034-041-042-049-050-058-059-281900-
EAST CENTRAL INDIANA

CITY           SKY/WX    TMP DP  RH WIND       PRES   REMARKS
MUNCIE         PTSUNNY   75  56  51 VRB7      30.18F
6HR MIN TEMP:  56; 6HR MAX TEMP:  76;


$$

INZ060-061-067>069-081>083-085>088-281900-
SOUTHWEST INDIANA

CITY           SKY/WX    TMP DP  RH WIND       PRES   REMARKS
EVANSVILLE     PTSUNNY   78  56  46 E5        30.14F
6HR MIN TEMP:  58; 6HR MAX TEMP:  79;

HUNTINGBURG *+ PTSUNNY   77  57  50 S3        30.15F
6HR MIN TEMP:  55; 6HR MAX TEMP:  77;


$$

INZ062-063-066-070>080-084-089>092-281900-
SOUTH CENTRAL AND SOUTHEAST INDIANA

CITY           SKY/WX    TMP DP  RH WIND       PRES   REMARKS
BLOOMINGTON    PTSUNNY   76  57  51 SE8       30.16F
6HR MIN TEMP:  55; 6HR MAX TEMP:  76;

MADISON *+     MOSUNNY   79  55  44 E5        30.19F
SEYMOUR +      MOSUNNY   81  57  44 E6        30.16F

$$




USA.gov is the U.S. government's official web portal to all federal, state and local government web resources and services.